Tracking 31027 objects as of 19-Jul-2025
HD Live streaming from Space Station
objects crossing your sky now

THORAD AGENA D DEB

Track THORAD AGENA D DEB now!
10-day predictions


NORAD ID: 21721
Int'l Code: 1970-025QG
Perigee: 1,000.9 km
Apogee: 1,009.7 km
Inclination: 100.1 °
Period: 105.1 minutes
Semi major axis: 7376 km
RCS: 0.015 m2 (small)
Launch date: April 8, 1970
Source: United States (US)
Launch site: AIR FORCE WESTERN TEST RANGE (AFWTR)

Note: This is SATELLITE DEBRIS
Your satellite tracking list
DEWASAT-2
Track 1 satellite(s)




NASA's NSSDC Master Catalog

Two Line Element Set (TLE):
1 21721U 70025QG  25199.78478697  .00000844  00000-0  10098-2 0  9995
2 21721 100.0879 129.6299 0005926  45.3456 344.1769 13.70397748679732
Source of the keplerian elements: AFSPC